Weather History for Poplar Bluff, MO

Change the Weather History Date:

Sunday, June 16, 2013

  Actual Average Record
Temperature  
Mean Temperature 80 °F -  
Max Temperature 89 °F 87 °F 101 °F (1944)
Min Temperature 73 °F 64 °F 46 °F (1933)
Cooling Degree Days 16    
Growing Degree Days 30 (Base 50)    
Moisture  
Dew Point 70 °F    
Average Humidity 74    
Maximum Humidity 91    
Minimum Humidity 49    
Precipitation  
Precipitation 0.00 in - - ()
Sea Level Pressure  
Sea Level Pressure 29.95 in    
Wind  
Wind Speed 2 mph (WSW)    
Max Wind Speed 10 mph    
Max Gust Speed -    
Visibility 9 miles    
Events Rain    
Averages and records for this station are not official NWS values.
T = Trace of Precipitation, MM = Missing Value Source: NWS Daily Summary

Daily Weather History Graph

Daily Weather History Graph

Search for Another Location

Airport:

Trip Planner

Search our weather history database for the weather conditions in past years. The results will help you decide how hot, cold, wet, or windy it might be!

Date:

Astronomy

Jun. 16, 2013 Rise Set
Actual Time 5:41 AM CDT 8:22 PM CDT
Civil Twilight 5:11 AM CDT 8:53 PM CDT
Nautical Twilight 4:32 AM CDT 9:31 PM CDT
Astronomical Twilight 3:50 AM CDT 10:14 PM CDT
Moon 1:07 PM CDT (6/16) 12:37 AM CDT (6/16)
Length of Visible Light 15h 41m
Length of Day
14h 40m
Waxing Crescent, 50% of the Moon is Illuminated
Jun 16
Waxing Crescent
Jun 16
First Quarter
Jun 23
Full
Jun 29
Last Quarter
Jul 8
New

Hourly Weather History & Observations

Time (CDT) Temp. Heat Index Dew Point Humidity Pressure Visibility Wind Dir Wind Speed Gust Speed Precip Events Conditions
12:53 AM 73.9 °F - 71.1 °F 91% 29.99 in 7.0 mi Calm Calm - N/A   Clear
1:53 AM 73.9 °F - 71.1 °F 91% 29.97 in 6.0 mi Calm Calm - N/A   Clear
2:53 AM 73.9 °F - 70.0 °F 87% 29.96 in 7.0 mi North 5.8 mph - N/A   Clear
3:53 AM 73.9 °F - 69.1 °F 85% 29.96 in 10.0 mi NNE 5.8 mph - N/A   Clear
4:53 AM 73.9 °F - 69.1 °F 85% 29.97 in 10.0 mi Calm Calm - N/A   Clear
5:53 AM 73.0 °F - 69.1 °F 87% 29.97 in 9.0 mi Calm Calm - N/A   Clear
6:53 AM 73.9 °F - 69.1 °F 85% 29.97 in 9.0 mi Calm Calm - N/A   Clear
7:53 AM 75.0 °F - 70.0 °F 84% 29.99 in 7.0 mi Calm Calm - N/A   Clear
8:53 AM 78.1 °F - 69.1 °F 74% 29.99 in 9.0 mi South 4.6 mph - N/A   Scattered Clouds
9:53 AM 80.1 °F 82.7 °F 68.0 °F 67% 29.98 in 10.0 mi SSW 6.9 mph - N/A   Clear
10:53 AM 84.0 °F 87.8 °F 69.1 °F 61% 29.98 in 10.0 mi Variable 6.9 mph - N/A   Clear
11:53 AM 86.0 °F 90.1 °F 69.1 °F 57% 29.97 in 10.0 mi SW 10.4 mph - N/A   Clear
12:53 PM 88.0 °F 92.1 °F 69.1 °F 53% 29.97 in 10.0 mi West 9.2 mph - N/A   Mostly Cloudy
1:53 PM 82.9 °F 87.5 °F 71.1 °F 67% 29.96 in 10.0 mi West 4.6 mph - 0.00 in Rain Light Rain
2:53 PM 87.1 °F 91.3 °F 69.1 °F 55% 29.96 in 10.0 mi Calm Calm - 0.00 in   Mostly Cloudy
3:53 PM 88.0 °F 90.7 °F 66.9 °F 49% 29.93 in 10.0 mi WSW 5.8 mph - N/A   Clear
4:53 PM 84.9 °F 87.6 °F 66.9 °F 55% 29.93 in 10.0 mi SW 6.9 mph - N/A   Partly Cloudy
5:53 PM 84.9 °F 87.6 °F 66.9 °F 55% 29.91 in 10.0 mi SSW 3.5 mph - N/A   Partly Cloudy
6:53 PM 82.9 °F 88.8 °F 73.0 °F 72% 29.92 in 10.0 mi Calm Calm - N/A   Clear
7:53 PM 80.1 °F 83.6 °F 71.1 °F 74% 29.92 in 10.0 mi Calm Calm - N/A   Clear
8:53 PM 78.1 °F - 71.1 °F 79% 29.92 in 10.0 mi Calm Calm - N/A   Clear
9:53 PM 77.0 °F - 71.1 °F 82% 29.92 in 10.0 mi Calm Calm - N/A   Clear
10:53 PM 75.9 °F - 71.1 °F 85% 29.94 in 10.0 mi Calm Calm - N/A   Clear
11:53 PM 75.0 °F - 71.1 °F 87% 29.92 in 9.0 mi Calm Calm - N/A   Clear